Regional Weather Roundup
Issued by NWS

Home | Current Version | Previous Version | Text Only | Print | Product List | Glossary Off
Versions: 1 2 3 4 5 6 7 8 9 10 11 12 13 14 15 16 17 18 19 20 21 22 23 24 25 26 27 28 29 30 31 32 33 34 35 36 37 38 39 40 41 42 43 44 45 46 47 48 49 50

000
ASUS43 KDMX 270103
RWRIA

WEATHER ROUNDUP FOR IOWA
NATIONAL WEATHER SERVICE DES MOINES IA
800 PM CDT FRI AUG 26 2016

NOTE: "FAIR" INDICATES FEW OR NO CLOUDS BELOW 12,000 FEET WITH NO
SIGNIFICANT WEATHER AND/OR OBSTRUCTIONS TO VISIBILITY.

* - THESE STATIONS ARE NOT NWS STATIONS...THUS NOT UNDER NWS
QUALITY CONTROL.  THEY ALSO DO NOT REPORT WEATHER SUCH
AS PRECIPITATION OR FOG.

IAZ001>003-012>014-020>022-031>034-043>046-270200-
   NORTHWEST IOWA

CITY           SKY/WX    TMP DP  RH WIND       PRES   REMARKS
CARROLL *      CLOUDY    66  63  88 E7        30.07S
CHEROKEE *     CLOUDY    66  62  86 E5        30.09R
DENISON *      CLOUDY    64  63  94 NE6       30.05S FOG
LE MARS *      CLOUDY    68  61  77 E5        30.08R
ORANGE CITY *  CLOUDY    66  63  88 NE5       30.08F
SHELDON *      CLOUDY    64  63  94 NE5       30.08S
SIOUX CITY     CLOUDY    69  60  73 SE8       30.06R
SPENCER        CLOUDY    65  60  84 E7        30.10S
STORM LAKE *   CLOUDY    64  61  88 E7        30.09S
$$

IAZ055>058-069>071-079>083-090>094-270200-
   SOUTHWEST IOWA

CITY           SKY/WX    TMP DP  RH WIND       PRES   REMARKS
ATLANTIC *     CLOUDY    66  63  88 NE8       30.05S
AUDUBON *      CLOUDY    66  63  88 NE5       30.08S
CLARINDA *       N/A     70  68  94 MISG      30.05S
COUNCIL BLFS * MOCLDY    66  64  94 E8        30.04S
CRESTON *      CLOUDY    68  66  94 E8        30.07R
HARLAN  *      CLOUDY    66  63  88 E6        30.09R
LAMONI         LGT RAIN  69  68  96 NE6       30.04R
RED OAK *      CLOUDY    68  66  94 NE7       30.04R
SHENANDOAH *   CLOUDY    70 -38   1 E6        30.04R
$$

IAZ047>049-059>061-072>074-084-270200-
   CENTRAL IOWA

CITY           SKY/WX    TMP DP  RH WIND       PRES   REMARKS
AMES           CLOUDY    64  63  96 NE8       30.09R
ANKENY *         N/A    N/A N/A N/A MISG        N/A
BOONE *        CLOUDY    64  61  88 E8        30.09R
CHARITON *       N/A     70  66  88 MISG      30.06R
DES MOINES     LGT RAIN  69  65  86 E12       30.05F
GRINNELL*      CLOUDY    66  62  86 NE8       30.09R
KNOXVILLE *    CLOUDY    72  64  78 NE8       30.06R
MARSHALLTOWN   CLOUDY    65  62  90 NE8       30.09R
NEWTON *       CLOUDY    68  64  88 NE12      30.07S
PERRY *        CLOUDY    66  64  94 NE6       30.08R
$$

IAZ004>006-015-016-023>025-035-036-270200-
   NORTH CENTRAL IOWA

CITY           SKY/WX    TMP DP  RH WIND       PRES   REMARKS
ALGONA *       CLOUDY    66  61  82 E6        30.11S
ESTHERVILLE    CLOUDY    63  61  93 E5        30.11S
FORT DODGE *   CLOUDY    64  61  88 E9        30.10F
MASON CITY     CLOUDY    64  61  90 NE5       30.13F
FOREST CITY *    N/A    N/A N/A N/A MISG        N/A
WEBSTER CITY * CLOUDY    64  61  88 E8        30.08S
IOWA FALLS *   LGT RAIN  64  60  88 NE5       30.12R
$$

IAZ007>011-017>019-026>030-037>042-050>054-066-270200-
   NORTHEAST IOWA

CITY           SKY/WX    TMP DP  RH WIND       PRES   REMARKS
CEDAR RAPIDS   CLOUDY    69  64  84 NE10      30.09R
CHARLES CITY * CLOUDY    64  64 100 CALM      30.13S
CLINTON *      CLOUDY    70  67  90 NE5       30.11S
DECORAH *      CLOUDY    64  63  94 SE5       30.14R
DUBUQUE        CLOUDY    67  60  78 NE8       30.13S
MONTICELLO *   CLOUDY    68  61  77 NE6       30.11S
OELWEIN *      CLOUDY    63  61  94 NE7       30.13F
WATERLOO       CLOUDY    63  58  83 NE7       30.11S
$$

IAZ064-065-067-068-078-270200-
   EAST CENTRAL IOWA

CITY           SKY/WX    TMP DP  RH WIND       PRES   REMARKS
DAVENPORT      MOCLDY    71  64  78 NE7       30.10S
IOWA CITY      CLOUDY    72  64  76 NE9       30.10R
MT. PLEASANT * CLOUDY    75  69  81 NE5       30.07S
MUSCATINE *    CLOUDY    73  66  78 NE6       30.08S
QUAD CITIES    CLOUDY    76  64  66 NE7       30.08S
$$

IAZ062-063-075>077-085>089-095>099-270200-
   SOUTHEAST IOWA

CITY           SKY/WX    TMP DP  RH WIND       PRES   REMARKS
BURLINGTON     CLOUDY    75  70  84 E5        30.07R
FAIRFIELD *    CLOUDY    73  64  73 NE6       30.07R
FORT MADISON * CLOUDY    73  70  88 CALM      30.08R
KEOKUK *       CLOUDY    75  72  88 CALM      30.06R
OSKALOOSA *    CLOUDY    69  65  85 E7        30.07S
CENTERVILLE *  MOCLDY    72  68  88 CALM      30.07S
OTTUMWA        CLOUDY    73  66  78 NE5       30.07R
WASHINGTON *   CLOUDY    72  66  83 E6        30.09R
$$

ABBREVIATIONS USED IN REMARKS
   TC - TEMPERATURES IN CELSIUS
  WCI - WIND CHILL INDEX
   HX - HEAT INDEX
  VSB - VISIBILITY
$$





USA.gov is the U.S. government's official web portal to all federal, state and local government web resources and services.